Content
SEND FEEDBACK

Daily
Averages
Monthly
Summary
United States of America

CRESCENT CITY, CALIFORNIA


Home > North America > United States > California
Elevation: 56 feet     Latitude: 41 46N     Longitude: 124 14W

WEATHER
 
SELECT A DAY
Number of Records: 276,081;   Date Range: 1/1/95 - 12/27/14
 
SHARE

PRINT THIS DATA

[ ← Previous Day ]
WEATHER ALMANAC - APRIL 7, 2013
[ Next Day → ]
[ °C ]   °F
Weather ElementAverageHighLow
Temperature49.1 °F53.6 °F (2:49 am)42.1 °F (9:56 pm)
Dewpoint46.2 °F51.8 °F (12:36 am)39 °F (11:56 pm)
Humidity89.9 %100 % (12:36 am)82 % (10:16 am)
Barometer30.01 in30.10 in (9:56 am)29.92 in (6:37 pm)
Wind Speed10.9 mph26.5 mph (1:56 am)
Wind Gust34.5 mph (1:56 am)
Weather ElementAverage
Visibility6.6 mi
Wind DirectionSSW (198.9 °)

Weather ElementTotal
Precipitation1.67 in
Heating Degree Days17.2 (Base 65)
Averaged from 44 records on April 7, 2013
WEATHER CONDITIONS BREAKOUT
WIND DIRECTION BREAKOUT
WEATHER BY HOUR - APRIL 7, 2013
[ °C ]   °F
Local TimeTemperatureDewpointHumidityBarometerVisibilityWind DirectionWind SpeedGust SpeedPrecipitationEventsConditions
12:36 AM51.8 °F51.8 °F100 %30.01 in2.0 miSSE (160°)21.9 mph32.2 mph0.02 inRainLight Rain
12:56 AM52.0 °F51.1 °F97 %30.02 in2.5 miSSE (160°)21.9 mph31.1 mph0.03 inRainLight Rain
1:26 AM51.8 °F51.8 °F100 %30.02 in4.0 miSSE (160°)21.9 mph31.1 mph0.03 inRainLight Rain
1:56 AM52.0 °F51.1 °F97 %30.03 in8.0 miSouth (170°)26.5 mph34.5 mph0.05 inRainLight Rain
2:49 AM53.6 °F51.8 °F94 %30.04 in7.0 miSSW (200°)16.1 mph34.5 mph0.01 inRainLight Rain
2:56 AM52.0 °F51.1 °F97 %30.04 in8.0 miSSW (200°)16.1 mph23.0 mph0.01 inRainLight Rain
3:30 AM53.6 °F51.8 °F94 %30.04 in7.0 miSouth (190°)18.4 mph25.3 mph0.01 inOvercast
3:41 AM53.6 °F51.8 °F94 %30.04 in6.0 miSSW (200°)15.0 mph0.01 inOvercast
3:56 AM52.0 °F51.1 °F97 %30.05 in5.0 miSSW (200°)12.7 mph0.01 inOvercast
4:56 AM51.1 °F48.9 °F92 %30.06 in7.0 miWSW (240°)16.1 mphOvercast
5:56 AM51.1 °F48.0 °F89 %30.06 in8.0 miWSW (240°)10.4 mphOvercast
6:56 AM50.0 °F46.9 °F89 %30.06 in9.0 miWSW (240°)10.4 mphOvercast
7:56 AM51.1 °F48.0 °F89 %30.07 in8.0 miSW (220°)9.2 mphOvercast
8:56 AM51.1 °F48.0 °F89 %30.09 in6.0 miSouth (190°)8.1 mphOvercast
9:56 AM51.1 °F46.9 °F86 %30.10 in10.0 miSW (220°)8.1 mphOvercast
10:16 AM51.8 °F46.4 °F82 %30.10 in9.0 miSW (220°)8.1 mphOvercast
10:48 AM51.8 °F46.4 °F82 %30.10 in9.0 miVariable6.9 mphOvercast
10:56 AM51.1 °F46.0 °F83 %30.10 in10.0 miSSW (210°)9.2 mphOvercast
11:56 AM51.1 °F46.9 °F86 %30.08 in8.0 miSouth (170°)10.4 mphOvercast
12:56 PM51.1 °F48.0 °F89 %30.06 in8.0 miSouth (170°)11.5 mph0.00 inRainLight Rain
1:56 PM51.1 °F46.9 °F86 %30.04 in7.0 miSouth (180°)12.7 mph0.00 inRainLight Rain
2:56 PM52.0 °F48.0 °F86 %30.01 in10.0 miSouth (170°)13.8 mph0.01 inRainLight Rain
3:10 PM51.8 °F48.2 °F88 %30.00 in9.0 miSouth (180°)15.0 mph0.00 inRainLight Rain
3:45 PM50.0 °F46.4 °F87 %29.98 in6.0 miSouth (190°)11.5 mph0.01 inRainLight Rain
3:53 PM50.0 °F46.4 °F87 %29.98 in7.0 miSSW (200°)12.7 mph0.02 inRainLight Rain
3:56 PM50.0 °F46.9 °F89 %29.98 in7.0 miSSW (200°)11.5 mph0.02 inRainLight Rain
4:56 PM50.0 °F46.9 °F89 %29.95 in4.0 miSSW (210°)11.5 mph0.07 inRainRain
5:10 PM50.0 °F46.4 °F87 %29.95 in2.5 miSW (220°)8.1 mph0.05 inRainRain
5:21 PM48.2 °F46.4 °F93 %29.94 in2.0 miSW (230°)9.2 mph0.10 inRainRain
5:53 PM46.4 °F42.8 °F87 %29.93 in1.2 miWest (280°)4.6 mph0.25 inRainHeavy Rain
5:56 PM46.9 °F44.1 °F90 %29.94 in1.0 miCalm0.27 inRainHeavy Rain
6:07 PM46.4 °F44.6 °F93 %29.93 in2.0 miCalm0.03 inRainRain
6:37 PM46.4 °F42.8 °F87 %29.92 in3.0 miNorth (350°)6.9 mph0.12 inRainRain
6:56 PM46.0 °F43.0 °F89 %29.92 in4.0 miNorth (350°)10.4 mph0.14 inRainLight Rain
7:10 PM46.4 °F42.8 °F87 %29.92 in4.0 miNorth (360°)6.9 mph0.02 inRainRain
7:51 PM44.6 °F42.8 °F93 %29.92 in4.0 miNNE (20°)4.6 mph0.13 inRainRain
7:56 PM45.0 °F42.1 °F90 %29.93 in5.0 miNE (40°)4.6 mph0.14 inRainRain
8:25 PM44.6 °F42.8 °F93 %29.93 in9.0 miNorth (360°)4.6 mph0.05 inRainLight Rain
8:56 PM44.1 °F41.0 °F89 %29.95 in10.0 miNorth (350°)11.5 mph18.4 mph0.06 inRainLight Rain
9:14 PM42.8 °F39.2 °F87 %29.95 in10.0 miNorth (10°)10.4 mph0.00 inRainLight Rain
9:56 PM42.1 °F39.9 °F92 %29.99 in10.0 miNorth (360°)6.9 mph0.00 inScattered Clouds
10:06 PM42.8 °F39.2 °F87 %29.99 in10.0 miNorth (10°)6.9 mphPartly Cloudy
10:56 PM43.0 °F39.9 °F89 %30.01 in10.0 miNorth (360°)9.2 mphClear
11:56 PM43.0 °F39.0 °F86 %30.04 in9.0 miNorth (360°)9.2 mphClear
Hourly data recorded from KCEC, located miles away from Crescent City, California







STORIES FROM OUR PARTNERS